Weather History for Central Park, NY

Change the Weather History Date:

Friday, April 11, 2014

  Actual Average Record
Temperature  
Mean Temperature 66 °F 52 °F  
Max Temperature 75 °F 60 °F 84 °F (1955)
Min Temperature 56 °F 43 °F 24 °F (1909)
Degree Days  
Heating Degree Days 0 14  
Month to date heating degree days 149 171  
Since 1 July heating degree days 4661 4393  
Cooling Degree Days 1 0  
Month to date cooling degree days 1 0  
Year to date cooling degree days 1 1  
Growing Degree Days 14 (Base 50)    
Moisture  
Dew Point 40 °F    
Average Humidity 49    
Maximum Humidity 67    
Minimum Humidity 31    
Precipitation  
Precipitation 0.00 in 0.16 in 1.10 in (1913)
Month to date precipitation 1.14 1.75  
Year to date precipitation 13.08 12.85  
Snow  
Snow 0.00 in 0.00 in 0.40 in (1918)
Month to date snowfall 0.0 0.4  
Since 1 July snowfall 57.4 25.6  
Snow Depth 0.00 in    
Sea Level Pressure  
Sea Level Pressure 29.99 in    
Wind  
Wind Speed 6 mph (WSW)    
Max Wind Speed 13 mph    
Max Gust Speed 22 mph    
Visibility 10 miles    
Events      
T = Trace of Precipitation, MM = Missing Value Source: NWS Daily Summary

Daily Weather History Graph

Daily Weather History Graph

Search for Another Location

Airport:

Trip Planner

Search our weather history database for the weather conditions in past years. The results will help you decide how hot, cold, wet, or windy it might be!

Date:

Astronomy

Apr. 11, 2014 Rise Set
Actual Time 6:23 AM EDT 7:31 PM EDT
Civil Twilight 5:55 AM EDT 7:59 PM EDT
Nautical Twilight 5:21 AM EDT 8:33 PM EDT
Astronomical Twilight 4:46 AM EDT 9:08 PM EDT
Moon 4:08 PM EDT (4/11) 4:18 AM EDT (4/11)
Length of Visible Light 14h 04m
Length of Day
13h 07m
Waxing Gibbous, 87% of the Moon is Illuminated
Apr 11
Waxing Gibbous
Apr 15
Full
Apr 22
Last Quarter
Apr 29
New
May 6
First Quarter

Hourly Weather History & Observations

Time (EDT) Temp. Dew Point Humidity Pressure Visibility Wind Dir Wind Speed Gust Speed Precip Events Conditions
12:51 AM 57.0 °F 30.0 °F 36% 30.01 in 10.0 mi SW 4.6 mph - N/A   Clear
1:51 AM 57.0 °F 30.9 °F 37% 29.99 in 10.0 mi Variable 4.6 mph - N/A   Clear
2:51 AM 57.0 °F 33.1 °F 40% 29.97 in 10.0 mi WSW 8.1 mph - N/A   Clear
3:51 AM 57.0 °F 34.0 °F 42% 29.96 in 10.0 mi WSW 8.1 mph - N/A   Clear
4:51 AM 55.9 °F 35.1 °F 45% 29.96 in 10.0 mi Variable 4.6 mph - N/A   Clear
5:51 AM 57.0 °F 35.1 °F 44% 29.97 in 10.0 mi Variable 3.5 mph 19.6 mph N/A   Partly Cloudy
6:51 AM 57.0 °F 37.0 °F 47% 29.98 in 10.0 mi WSW 8.1 mph - N/A   Partly Cloudy
7:51 AM 57.0 °F 37.0 °F 47% 30.01 in 10.0 mi West 4.6 mph - N/A   Clear
8:51 AM 59.0 °F 37.0 °F 44% 30.03 in 10.0 mi WSW 6.9 mph - N/A   Clear
9:51 AM 62.1 °F 37.0 °F 39% 30.01 in 10.0 mi SSW 4.6 mph - N/A   Clear
10:51 AM 64.0 °F 37.9 °F 38% 30.04 in 10.0 mi WSW 9.2 mph - N/A   Clear
11:51 AM 68.0 °F 39.9 °F 36% 30.01 in 10.0 mi WSW 5.8 mph - N/A   Clear
12:51 PM 70.0 °F 41.0 °F 35% 29.99 in 10.0 mi West 8.1 mph - N/A   Clear
1:51 PM 73.9 °F 43.0 °F 33% 29.97 in 10.0 mi WSW 8.1 mph - N/A   Clear
2:51 PM 73.9 °F 42.1 °F 32% 29.94 in 10.0 mi Variable 6.9 mph - N/A   Clear
3:51 PM 70.0 °F 41.0 °F 35% 29.94 in 10.0 mi Variable 6.9 mph - N/A   Clear
4:51 PM 71.1 °F 39.9 °F 32% 29.94 in 10.0 mi Variable 3.5 mph - N/A   Clear
5:51 PM 68.0 °F 46.0 °F 45% 29.98 in 10.0 mi NW 11.5 mph - N/A   Clear
6:51 PM 66.9 °F 45.0 °F 45% 29.96 in 10.0 mi Variable 4.6 mph - N/A   Overcast
7:51 PM 64.0 °F 46.9 °F 54% 30.00 in 10.0 mi West 4.6 mph - N/A   Partly Cloudy
8:51 PM 63.0 °F 46.9 °F 56% 30.03 in 10.0 mi NW 5.8 mph - N/A   Partly Cloudy
9:51 PM 61.0 °F 46.9 °F 60% 30.03 in 10.0 mi Variable 4.6 mph - N/A   Partly Cloudy
10:51 PM 60.1 °F 46.9 °F 62% 30.02 in 10.0 mi Variable 4.6 mph - N/A   Overcast
11:51 PM 59.0 °F 48.0 °F 67% 30.01 in 10.0 mi Calm Calm - N/A   Overcast